Weather History for Baker, OR

Change the Weather History Date:

Thursday, April 4, 2013

  Actual Average Record
Temperature  
Mean Temperature 50 °F 41 °F  
Max Temperature 63 °F 55 °F 75 °F (1960)
Min Temperature 37 °F 28 °F 17 °F (2001)
Degree Days  
Heating Degree Days 15 24  
Month to date heating degree days 65 96  
Since 1 July heating degree days 6286 6464  
Cooling Degree Days 0 0  
Month to date cooling degree days 0 0  
Year to date cooling degree days 0 0  
Moisture  
Dew Point 39 °F    
Average Humidity 61    
Maximum Humidity 86    
Minimum Humidity 36    
Precipitation  
Precipitation 0.13 in 0.03 in 0.17 in (2012)
Month to date precipitation 0.13 0.10  
Year to date precipitation 1.71 2.30  
Sea Level Pressure  
Sea Level Pressure 29.88 in    
Wind  
Wind Speed 7 mph (SSE)    
Max Wind Speed 32 mph    
Max Gust Speed 41 mph    
Visibility 10 miles    
Events Rain    
T = Trace of Precipitation, MM = Missing Value Source: NWS Daily Summary

Daily Weather History Graph

Daily Weather History Graph

Search for Another Location

Airport:

Trip Planner

Search our weather history database for the weather conditions in past years. The results will help you decide how hot, cold, wet, or windy it might be!

Date:

Astronomy

Apr. 04, 2013 Rise Set
Actual Time 6:25 AM PDT 7:23 PM PDT
Civil Twilight 5:56 AM PDT 7:52 PM PDT
Nautical Twilight 5:20 AM PDT 8:28 PM PDT
Astronomical Twilight 4:43 AM PDT 9:06 PM PDT
Moon 3:10 AM PDT (4/4) 1:33 PM PDT (4/4)
Length of Visible Light 13h 56m
Length of Day
12h 57m
Waning Crescent, 32% of the Moon is Illuminated
Apr 4
Waning Crescent
Apr 10
New
Apr 18
First Quarter
Apr 25
Full
May 2
Last Quarter

Hourly Weather History & Observations

Time (PDT) Temp. Windchill Dew Point Humidity Pressure Visibility Wind Dir Wind Speed Gust Speed Precip Events Conditions
12:53 AM 41.0 °F - 35.1 °F 79% 30.00 in 10.0 mi Calm Calm - N/A   Clear
1:53 AM 37.0 °F 34.5 °F 34.0 °F 89% 30.00 in 10.0 mi SSE 3.5 mph - N/A   Clear
2:53 AM 39.0 °F 36.8 °F 36.0 °F 89% 29.97 in 10.0 mi West 3.5 mph - N/A   Clear
3:53 AM 43.0 °F 38.2 °F 36.0 °F 76% 29.96 in 10.0 mi SSW 8.1 mph - N/A   Clear
4:53 AM 39.0 °F - 35.1 °F 86% 29.95 in 10.0 mi Calm Calm - N/A   Partly Cloudy
5:53 AM 41.0 °F 39.0 °F 36.0 °F 82% 29.93 in 10.0 mi SW 3.5 mph - N/A   Mostly Cloudy
6:53 AM 41.0 °F - 37.0 °F 86% 29.92 in 10.0 mi Calm Calm - N/A   Partly Cloudy
7:53 AM 44.1 °F - 39.0 °F 82% 29.91 in 10.0 mi Calm Calm - N/A   Overcast
8:53 AM 46.9 °F - 39.0 °F 74% 29.90 in 10.0 mi Calm Calm - N/A   Overcast
9:53 AM 51.1 °F - 39.9 °F 66% 29.88 in 10.0 mi Calm Calm - N/A   Mostly Cloudy
10:53 AM 55.0 °F - 39.9 °F 57% 29.87 in 10.0 mi Calm Calm - N/A   Overcast
11:53 AM 59.0 °F - 39.9 °F 49% 29.85 in 10.0 mi ESE 11.5 mph 17.3 mph N/A   Overcast
12:53 PM 62.1 °F - 37.0 °F 39% 29.85 in 10.0 mi SSE 16.1 mph - N/A   Overcast
1:03 PM 62.6 °F - 33.8 °F 34% 29.86 in 10.0 mi SSE 20.7 mph 26.5 mph N/A   Overcast
1:53 PM 61.0 °F - 34.0 °F 36% 29.86 in 10.0 mi South 25.3 mph 32.2 mph N/A   Overcast
2:53 PM 60.1 °F - 39.9 °F 47% 29.86 in 10.0 mi South 19.6 mph - 0.00 in Rain Light Rain
3:53 PM 60.1 °F - 39.0 °F 46% 29.83 in 10.0 mi South 17.3 mph - 0.00 in   Overcast
4:53 PM 60.1 °F - 39.0 °F 46% 29.81 in 10.0 mi South 9.2 mph - N/A   Mostly Cloudy
5:53 PM 61.0 °F - 39.0 °F 44% 29.78 in 10.0 mi ESE 11.5 mph - N/A   Mostly Cloudy
6:20 PM 53.6 °F - 42.8 °F 67% 29.81 in 10.0 mi South 13.8 mph 27.6 mph 0.00 in Rain Light Rain
6:53 PM 53.1 °F - 43.0 °F 69% 29.80 in 10.0 mi South 13.8 mph - 0.00 in   Overcast
7:53 PM 51.1 °F - 41.0 °F 68% 29.81 in 10.0 mi ENE 6.9 mph - N/A   Mostly Cloudy
8:53 PM 48.0 °F - 42.1 °F 80% 29.87 in 6.0 mi NW 3.5 mph - 0.03 in Rain Rain
9:53 PM 45.0 °F 41.8 °F 42.1 °F 90% 29.89 in 10.0 mi ENE 5.8 mph - 0.04 in Rain Light Rain
10:53 PM 45.0 °F 42.6 °F 42.1 °F 90% 29.89 in 10.0 mi NE 4.6 mph - 0.00 in   Mostly Cloudy
11:53 PM 45.0 °F 41.8 °F 42.1 °F 90% 29.91 in 8.0 mi SSW 5.8 mph - 0.01 in Rain Rain